Location: Winthrop
(48.4780°N, 120.1850°W)
Time: 02:42:06
(UTC-07:00)

SEEDS - Visible Passes

Search period start: 16 May 2022 00:00
Search period end: 26 May 2022 00:00
Orbit: 582 x 598 km, 97.6° (Epoch: 15 May)

Date Brightness Start Highest point End Pass type
(mag) Time Alt. Az. Time Alt. Az. Time Alt. Az.
16 May ? 04:41:43 10° NE 04:45:25 29° E 04:49:06 10° SSE visible
22 May ? 03:57:25 10° E 03:57:41 10° E 03:57:57 10° E visible
23 May ? 04:04:03 10° ENE 04:05:49 12° E 04:07:34 10° ESE visible
24 May ? 04:11:30 10° NE 04:13:55 15° E 04:16:20 10° SE visible
25 May ? 04:19:08 10° NE 04:22:01 18° E 04:24:53 10° SE visible
